Wind_Speed
12 8 20 21 17 11 15 15 19 9 5 8 20 22 21 26 15 16 18 19 21 23 21 26 31 33 33 32 32 31 30 29 28 28 26 25 24 22 22 21 19 16 14 13
7 20 19 15 16 14 10 14 14 6 3 6 12 18 21 29 30 22 22 21 24 20 23 26 32 36 37 36 35 34 33 31 30 29 28 26 25 24 22 21 19 18 18 17
18 12 13 15 13 10 11 18 15 5 5 1 3 14 24 27 35 35 28 27 21 25 27 28 33 37 38 39 39 37 35 33 31 30 29 28 26 25 24 21 20 20 20 19
11 12 17 14 18 17 8 4 7 10 5 4 7 8 16 17 23 28 28 26 28 26 30 28 34 39 42 43 40 39 37 36 35 33 33 32 32 31 28 24 20 19 21 21
10 17 19 21 19 18 3 9 8 4 4 2 5 5 10 11 17 18 32 33 32 35 34 35 38 39 40 41 41 42 41 40 39 37 38 36 35 32 28 27 25 25 22 22
4 4 10 10 13 18 16 12 13 7 3 5 12 10 16 15 17 15 24 30 35 40 40 39 37 38 39 40 39 41 43 44 43 42 41 41 39 36 34 32 28 28 24 23
5 8 2 11 12 17 8 11 3 2 4 8 2 13 21 11 17 19 21 28 34 40 43 44 40 40 40 41 41 41 42 44 46 47 45 43 42 39 38 34 33 31 30 27
12 7 10 5 8 8 7 8 6 9 7 6 2 10 5 13 24 25 20 20 22 28 36 44 45 42 41 42 43 43 43 43 46 48 47 45 43 42 40 37 37 36 33 28
15 6 2 4 7 16 5 5 3 4 2 1 6 7 10 16 14 14 22 26 25 24 28 32 40 44 43 44 45 44 44 45 46 46 45 45 44 44 43 39 39 37 35 31
13 7 0 4 7 5 13 13 5 2 5 7 9 7 9 11 13 16 15 23 27 30 33 29 29 37 44 45 46 45 44 45 46 45 45 46 46 45 42 40 39 38 35 34
15 6 3 6 5 9 7 6 2 1 3 5 5 7 4 8 10 9 8 11 18 20 22 27 25 32 35 41 43 44 43 43 45 46 47 47 46 45 42 42 39 37 36 37
4 6 7 3 1 6 4 9 9 7 6 5 5 12 5 3 3 4 11 13 13 16 16 18 19 28 28 31 36 41 43 43 44 45 45 45 43 41 41 40 39 38 38 40
10 6 7 4 3 3 9 10 12 5 1 8 6 10 1 6 3 1 5 11 19 22 19 18 18 21 26 31 30 33 40 44 44 43 42 42 40 39 39 39 37 37 38 41
9 5 8 12 9 12 7 17 17 15 5 17 16 29 18 9 7 2 4 14 24 21 18 21 19 18 23 26 28 30 32 36 37 38 38 40 39 40 40 37 39 35 39 43
6 5 6 4 11 11 16 21 19 21 30 14 29 26 27 21 20 26 17 15 20 19 23 22 21 17 17 22 25 27 29 32 33 35 36 37 38 38 37 38 35 36 39 45
3 5 8 3 10 8 7 19 25 29 29 25 28 24 19 13 8 12 16 14 18 18 22 25 26 25 22 20 24 27 29 29 30 31 33 35 35 35 35 36 36 38 40 43
11 6 6 7 9 7 5 20 23 22 23 25 20 32 12 10 12 20 22 21 21 24 27 26 31 31 29 25 23 27 29 28 29 30 31 31 30 31 30 31 35 39 44 36
15 6 2 4 4 7 1 2 19 24 18 24 20 24 18 19 22 23 27 32 38 29 30 31 35 35 32 26 24 26 29 26 25 25 25 24 26 26 30 32 38 42 39 40
11 7 4 6 10 5 8 6 9 13 16 21 23 26 30 34 23 32 38 34 35 38 40 41 31 27 28 23 22 26 26 25 25 25 24 25 26 29 32 35 39 42 42 37
8 8 5 4 6 9 1 1 4 11 8 16 25 21 22 16 8 15 16 19 20 20 20 20 18 20 19 19 21 27 26 25 27 24 24 25 28 29 31 33 35 38 37 37
9 7 11 4 5 4 6 5 13 6 4 4 8 17 15 11 15 10 7 8 12 17 17 15 11 13 14 13 14 21 26 24 23 23 24 25 26 30 32 34 36 37 39 37
10 8 6 3 6 12 11 7 9 3 3 2 1 1 3 7 10 9 9 11 12 11 9 9 7 4 5 7 10 13 17 17 22 24 24 25 27 30 34 36 38 40 39 40
5 6 6 10 6 3 22 6 14 2 2 2 3 2 3 4 6 7 7 8 8 5 5 5 4 3 3 3 5 8 8 11 17 24 25 25 27 31 35 38 40 41 41 42
3 3 4 4 5 4 16 13 9 7 5 5 4 3 4 5 5 6 6 8 8 8 8 8 7 5 4 5 6 7 9 10 13 17 23 26 28 30 33 36 38 40 43 43
1 10 6 2 1 2 6 12 12 9 7 5 3 3 4 4 5 6 7 7 8 8 9 9 9 9 9 9 8 8 9 11 12 16 20 25 29 31 33 37 39 41 41 41
2 2 6 4 7 4 5 15 13 12 10 9 8 8 7 7 8 8 9 8 8 7 7 7 7 7 8 9 10 9 10 11 12 15 17 22 27 33 36 39 42 42 39 37
Wind_Direction
180 187 204 193 198 229 199 204 211 215 130 208 228 238 254 258 266 266 250 242 232 223 222 217 212 210 211 210 213 218 221 220 219 220 220 223 227 228 229 229 237 244 237 245
160 218 202 196 199 213 177 198 207 130 106 217 244 263 256 258 253 255 257 247 235 228 222 218 215 214 213 214 216 217 222 224 224 226 227 232 235 235 238 237 241 243 243 247
196 195 175 178 191 190 193 206 193 188 138 282 321 271 261 256 250 248 254 249 241 227 225 220 219 217 217 217 218 219 221 224 225 225 227 231 233 235 232 233 232 238 244 247
220 180 177 195 196 190 186 217 151 135 145 224 189 284 260 250 244 230 241 240 235 230 230 223 224 221 221 221 221 224 225 225 226 227 229 231 235 234 235 241 240 244 241 248
181 175 184 192 198 189 136 152 134 138 115 11 206 257 262 241 246 237 233 239 236 233 233 228 227 228 228 226 224 226 228 228 230 229 233 234 235 238 237 236 244 241 244 243
108 151 171 177 177 166 125 89 62 53 74 245 218 212 263 239 239 243 239 233 232 235 234 235 234 230 228 229 229 229 228 231 231 231 231 235 237 238 238 237 238 237 242 246
141 159 116 162 105 142 130 146 105 181 197 245 329 220 247 260 245 240 236 230 231 236 235 236 232 230 227 228 227 228 228 231 231 231 231 233 236 238 240 242 239 240 238 244
173 179 171 167 161 165 153 171 168 200 213 229 65 238 246 252 257 257 256 250 244 238 239 238 237 236 230 228 227 228 229 229 230 231 231 232 233 236 240 240 242 240 241 246
177 162 132 131 152 149 158 186 69 106 46 221 224 277 251 262 257 260 252 246 251 246 245 246 242 238 235 232 229 231 232 232 232 232 232 233 233 234 237 240 240 239 238 238
159 122 135 129 100 46 182 149 155 123 195 243 240 265 256 287 272 232 244 245 250 254 250 252 247 240 236 235 233 234 235 236 237 235 234 234 236 237 238 239 238 235 234 234
165 124 124 143 191 166 143 173 100 165 237 240 282 266 205 269 284 306 284 284 279 273 270 256 251 250 245 241 239 238 236 235 233 233 234 235 238 239 238 238 237 235 233 232
124 112 131 103 270 166 142 164 177 194 191 250 309 254 177 198 339 274 301 307 309 299 288 278 260 254 254 249 244 241 237 236 231 230 231 235 236 237 237 236 236 233 230 228
170 125 116 101 62 317 210 195 204 196 81 206 202 261 83 227 192 148 311 347 352 343 326 303 277 252 243 247 246 242 236 233 230 228 228 232 235 234 235 236 234 232 230 220
144 156 177 186 190 138 183 194 197 200 199 229 228 259 236 241 239 298 335 328 328 324 340 339 317 285 264 248 242 237 232 229 227 228 228 231 233 235 235 236 233 231 225 225
156 133 131 92 146 153 192 195 188 201 225 213 238 243 251 255 266 285 298 303 302 318 325 328 320 307 282 259 246 236 227 225 226 228 230 234 235 236 236 234 231 225 221 218
151 133 143 74 151 157 170 202 198 208 225 232 249 266 264 252 298 273 278 274 293 302 314 319 319 308 288 268 248 237 229 227 230 234 237 239 238 235 231 230 222 220 214 210
161 138 141 165 163 142 266 209 201 210 218 224 234 241 250 270 259 259 266 269 261 281 293 300 310 306 297 274 257 243 236 233 234 240 242 240 233 226 224 215 217 219 203 207
155 119 94 138 145 208 176 27 203 204 213 221 245 258 260 258 261 263 270 270 278 277 285 289 300 299 292 279 252 242 239 236 237 237 236 232 224 222 216 216 218 201 214 211
181 144 119 154 204 308 271 177 162 185 239 228 237 252 258 258 268 274 260 262 268 276 282 285 286 275 279 274 257 241 237 239 235 234 232 227 222 222 219 210 213 220 209 211
168 196 153 164 183 217 214 110 216 166 283 213 217 239 243 248 255 260 292 261 272 285 288 290 275 260 266 273 253 239 233 234 236 234 233 229 222 223 223 222 219 215 213 218
164 183 204 183 218 262 234 166 151 150 214 157 216 243 251 216 233 283 317 290 303 312 322 324 300 264 261 257 255 250 244 240 240 234 231 231 226 224 225 223 221 219 218 211
162 157 183 179 212 243 166 128 188 172 127 155 102 80 174 227 245 275 299 301 297 321 307 322 329 307 275 267 261 257 256 256 250 242 234 232 230 226 224 225 222 219 216 211
165 179 167 194 192 184 171 157 206 173 140 164 138 51 65 95 71 58 47 37 33 20 22 29 21 1 358 324 291 284 278 263 253 249 242 234 231 228 227 226 221 216 212 212
178 160 163 135 210 184 188 199 183 184 139 120 108 83 58 64 67 67 51 52 42 23 14 9 359 347 324 301 281 271 263 248 249 254 254 247 239 233 228 225 222 219 217 215
131 147 145 253 303 85 210 191 175 166 155 139 111 77 72 77 77 70 74 54 43 27 17 5 350 339 325 309 290 276 263 256 247 246 245 243 239 233 228 224 222 221 223 225
10 124 193 199 152 147 149 178 173 158 139 133 122 102 79 68 58 39 29 41 27 17 11 358 345 329 313 300 287 277 270 264 260 256 250 245 240 233 227 224 221 221 224 227
Height
1527 1529 1517 1523 1530 1530 1526 1533 1536 1543 1547 1549 1548 1546 1545 1545 1547 1546 1544 1546 1545 1545 1549 1551 1553 1557 1560 1562 1566 1569 1573 1576 1578 1580 1583 1585 1586 1588 1589 1589 1591 1592 1594 1595
1524 1512 1518 1525 1529 1530 1531 1535 1536 1547 1549 1551 1545 1543 1538 1536 1538 1540 1538 1539 1539 1543 1543 1545 1547 1551 1552 1556 1560 1563 1567 1571 1574 1576 1579 1581 1583 1584 1585 1587 1588 1590 1591 1592
1503 1507 1517 1522 1528 1534 1532 1534 1537 1543 1550 1554 1556 1544 1533 1525 1527 1530 1531 1531 1533 1535 1536 1538 1541 1543 1547 1549 1552 1557 1560 1565 1568 1571 1573 1576 1578 1579 1581 1581 1584 1586 1588 1588
1508 1510 1514 1520 1523 1528 1540 1539 1540 1547 1551 1557 1552 1542 1514 1512 1513 1516 1521 1524 1524 1526 1528 1531 1533 1535 1538 1541 1547 1551 1555 1558 1561 1565 1566 1568 1570 1572 1575 1577 1580 1581 1583 1584
1501 1506 1512 1516 1519 1526 1533 1539 1541 1549 1555 1560 1555 1559 1508 1508 1507 1504 1508 1513 1514 1516 1519 1520 1523 1527 1532 1537 1537 1542 1548 1551 1554 1557 1560 1562 1563 1566 1569 1571 1573 1574 1577 1579
1507 1510 1511 1510 1518 1523 1536 1545 1553 1562 1567 1562 1545 1546 1501 1499 1498 1495 1498 1502 1503 1506 1509 1511 1514 1519 1524 1529 1532 1534 1538 1541 1546 1548 1551 1554 1557 1560 1562 1564 1567 1568 1571 1573
1507 1509 1511 1512 1523 1529 1529 1539 1556 1561 1560 1535 1537 1533 1504 1488 1484 1485 1487 1491 1493 1496 1498 1502 1506 1509 1514 1518 1521 1524 1528 1531 1536 1539 1541 1544 1548 1553 1554 1558 1560 1562 1564 1567
1492 1507 1507 1507 1508 1521 1529 1525 1528 1536 1531 1517 1542 1514 1490 1486 1485 1485 1486 1489 1489 1488 1490 1492 1496 1501 1505 1506 1511 1514 1518 1521 1526 1529 1532 1535 1540 1543 1546 1550 1551 1554 1557 1560
1484 1502 1507 1507 1511 1517 1534 1530 1531 1534 1559 1534 1513 1499 1491 1484 1484 1483 1482 1484 1483 1481 1483 1485 1489 1493 1497 1499 1501 1504 1507 1512 1517 1520 1525 1527 1531 1533 1536 1541 1544 1547 1550 1553
1470 1496 1507 1512 1514 1518 1516 1524 1532 1536 1534 1530 1494 1504 1490 1481 1472 1473 1475 1473 1474 1477 1478 1480 1481 1484 1488 1490 1495 1498 1500 1503 1508 1513 1516 1519 1522 1527 1531 1534 1536 1540 1544 1548
1461 1474 1509 1509 1509 1512 1519 1521 1525 1521 1523 1513 1508 1484 1474 1477 1473 1472 1475 1476 1474 1475 1474 1475 1475 1478 1481 1484 1486 1490 1491 1494 1498 1502 1507 1510 1513 1518 1522 1525 1528 1533 1536 1540
1464 1476 1496 1504 1505 1507 1508 1513 1512 1507 1522 1520 1515 1486 1474 1476 1477 1475 1476 1474 1472 1472 1471 1471 1471 1472 1474 1476 1477 1479 1483 1485 1488 1493 1497 1502 1504 1509 1514 1516 1520 1524 1527 1531
1457 1474 1496 1511 1513 1512 1505 1506 1505 1503 1513 1514 1513 1474 1472 1475 1475 1475 1474 1473 1469 1469 1468 1466 1466 1465 1466 1469 1469 1469 1471 1475 1481 1485 1489 1493 1497 1499 1504 1508 1511 1514 1520 1521
1448 1463 1459 1464 1465 1485 1501 1500 1503 1505 1511 1490 1493 1465 1466 1469 1473 1474 1473 1472 1470 1469 1467 1465 1463 1462 1462 1461 1461 1462 1465 1469 1475 1480 1483 1485 1488 1492 1496 1501 1504 1507 1511 1515
1446 1460 1461 1468 1471 1476 1479 1488 1496 1499 1480 1493 1467 1469 1457 1470 1470 1468 1472 1470 1468 1466 1466 1464 1463 1459 1457 1458 1457 1458 1459 1463 1468 1472 1475 1478 1481 1484 1488 1493 1496 1501 1505 1509
1448 1460 1460 1477 1475 1475 1479 1482 1483 1483 1481 1484 1466 1469 1461 1470 1470 1469 1468 1467 1466 1464 1464 1462 1461 1458 1455 1454 1456 1455 1456 1457 1462 1466 1469 1472 1475 1476 1479 1484 1489 1494 1498 1503
1446 1457 1463 1473 1474 1478 1481 1468 1472 1475 1475 1468 1475 1444 1464 1464 1463 1463 1462 1461 1460 1460 1460 1458 1456 1454 1453 1452 1451 1452 1453 1453 1454 1458 1462 1465 1467 1470 1473 1478 1483 1488 1491 1499
1439 1455 1465 1477 1483 1477 1452 1456 1454 1459 1459 1464 1460 1451 1460 1459 1458 1459 1457 1454 1453 1453 1453 1452 1451 1449 1449 1449 1448 1448 1450 1449 1449 1451 1456 1460 1465 1468 1470 1473 1477 1482 1488 1492
1439 1439 1465 1465 1459 1451 1444 1454 1457 1460 1453 1455 1455 1454 1455 1452 1457 1449 1445 1447 1449 1450 1447 1443 1443 1443 1444 1443 1445 1444 1443 1445 1445 1448 1451 1457 1462 1466 1467 1470 1474 1478 1482 1486
1438 1438 1442 1471 1456 1457 1443 1446 1447 1449 1450 1440 1443 1445 1444 1452 1453 1433 1438 1442 1444 1443 1439 1434 1435 1435 1437 1440 1441 1443 1439 1439 1441 1443 1447 1452 1457 1461 1464 1468 1472 1476 1480 1484
1442 1447 1444 1456 1450 1450 1441 1443 1445 1451 1443 1436 1439 1441 1442 1443 1441 1440 1438 1439 1438 1437 1433 1430 1430 1431 1432 1434 1437 1441 1442 1437 1440 1441 1442 1446 1451 1456 1460 1464 1467 1471 1475 1480
1424 1436 1441 1454 1448 1441 1433 1440 1436 1432 1432 1436 1439 1440 1441 1441 1441 1439 1436 1434 1434 1434 1434 1432 1431 1431 1431 1432 1434 1437 1437 1438 1441 1441 1439 1441 1445 1451 1455 1458 1461 1465 1470 1475
1417 1411 1422 1424 1421 1420 1423 1424 1428 1430 1433 1436 1437 1439 1438 1437 1436 1435 1434 1434 1433 1434 1435 1434 1434 1433 1431 1430 1433 1433 1432 1433 1436 1440 1438 1437 1441 1445 1450 1453 1456 1460 1464 1469
1412 1413 1415 1422 1421 1418 1421 1424 1428 1431 1434 1435 1436 1436 1436 1435 1434 1434 1435 1435 1434 1436 1436 1436 1436 1434 1432 1430 1431 1434 1432 1428 1428 1431 1436 1437 1438 1441 1445 1449 1453 1457 1460 1464
1403 1410 1416 1417 1416 1418 1420 1423 1428 1429 1431 1432 1435 1436 1437 1437 1436 1436 1435 1436 1437 1438 1438 1438 1438 1436 1435 1434 1433 1432 1431 1428 1424 1426 1429 1433 1436 1438 1441 1445 1449 1453 1458 1461
1407 1407 1403 1402 1406 1409 1414 1420 1425 1426 1428 1431 1433 1435 1436 1437 1438 1438 1438 1438 1440 1441 1440 1440 1439 1438 1435 1433 1431 1428 1426 1424 1422 1424 1424 1427 1431 1433 1436 1440 1442 1447 1453 1457